Location: Baix
(44.7118°N, 4.7648°E)
Time: 01:54:01
(UTC+00:00)

CZ-4B R/B - Pass Details

Date: 07 August 2020
Orbit: 702 x 803 km, 98.9° (Epoch: 27 September)

Event Time Altitude Azimuth Distance (km) Brightness Sun altitude
Rises 02:36:15 0° 6° (N) 3,126 7.6 -17.8°
Reaches altitude 10° 02:38:39 10° 359° (N) 2,193 6.5 -17.5°
Maximum altitude 02:43:02 37° 293° (WNW) 1,092 4.1 -17.0°
Enters shadow 02:44:50 27° 249° (WSW) 1,341 4.2 -16.8°
